Weather History for Grantley Adams, Barbados

Change the Weather History Date:

Saturday, March 2, 2013

  Actual Average Record
Temperature  
Mean Temperature 80 °F -  
Max Temperature 84 °F 83 °F 86 °F (1998)
Min Temperature 75 °F 74 °F 69 °F (2001)
Cooling Degree Days 14    
Growing Degree Days 30 (Base 50)    
Moisture  
Dew Point 72 °F    
Average Humidity 78    
Maximum Humidity 89    
Minimum Humidity 62    
Precipitation  
Precipitation 0.00 in - - ()
Sea Level Pressure  
Sea Level Pressure 29.92 in    
Wind  
Wind Speed 12 mph ()    
Max Wind Speed 17 mph    
Max Gust Speed -    
Visibility 8.8 miles    
Events      
Averages and records for this station are not official NWS values.
T = Trace of Precipitation, MM = Missing Value Source: Averaged Metar Reports

Daily Weather History Graph

Daily Weather History Graph

Search for Another Location

Airport:

Trip Planner

Search our weather history database for the weather conditions in past years. The results will help you decide how hot, cold, wet, or windy it might be!

Date:

Astronomy

Mar. 02, 2013 Rise Set
Actual Time 6:13 AM AST 6:07 PM AST
Civil Twilight 5:51 AM AST 6:28 PM AST
Nautical Twilight 5:27 AM AST 6:53 PM AST
Astronomical Twilight 5:02 AM AST 7:17 PM AST
Moon 10:38 PM AST (3/2) 9:35 AM AST (3/2)
Length of Visible Light 12h 36m
Length of Day
11h 53m
Waning Gibbous, 74% of the Moon is Illuminated
Mar 2
Waning Gibbous
Mar 4
Last Quarter
Mar 11
New
Mar 19
First Quarter
Mar 27
Full

Hourly Weather History & Observations

Time (AST) Temp. Heat Index Dew Point Humidity Pressure Visibility Wind Dir Wind Speed Gust Speed Precip Events Conditions
12:00 AM 77.0 °F - 69.8 °F 78% 29.92 in 6.2 mi ESE 10.4 mph - N/A   Mostly Cloudy
1:00 AM 77.0 °F - 71.6 °F 83% 29.89 in 6.2 mi East 12.7 mph - N/A   Mostly Cloudy
2:00 AM 76 °F - 70 °F 78% 29.88 in 31 mi East 12.7 mph - -   Partly Cloudy
2:00 AM 77.0 °F - 69.8 °F 78% 29.89 in 6.2 mi East 12.7 mph - N/A   Mostly Cloudy
3:00 AM 75.2 °F - 71.6 °F 89% 29.86 in 6.2 mi East 10.4 mph - N/A   Mostly Cloudy
4:00 AM 75.2 °F - 71.6 °F 89% 29.86 in 6.2 mi East 11.5 mph - N/A   Mostly Cloudy
5:00 AM 76 °F - 71 °F 79% 29.89 in 31 mi ESE 13.8 mph - -  
5:00 AM 75.2 °F - 71.6 °F 89% 29.89 in 6.2 mi ESE 13.8 mph - N/A   Mostly Cloudy
6:00 AM 77.0 °F - 71.6 °F 83% 29.89 in 6.2 mi ESE 13.8 mph - N/A   Mostly Cloudy
7:00 AM 77.0 °F - 71.6 °F 83% 29.92 in 6.2 mi ESE 12.7 mph - N/A   Mostly Cloudy
8:00 AM 79 °F - 73 °F 76% 29.95 in 19 mi ESE 12.7 mph - -  
8:00 AM 78.8 °F - 73.4 °F 83% 29.95 in 6.2 mi ESE 12.7 mph - N/A   Mostly Cloudy
9:00 AM 80.6 °F 85.4 °F 73.4 °F 79% 29.92 in 6.2 mi SE 15.0 mph - N/A   Scattered Clouds
10:00 AM 80.6 °F 85.4 °F 73.4 °F 79% 29.95 in 6.2 mi SE 13.8 mph - N/A   Scattered Clouds
11:00 AM 82 °F - 73 °F 67% 29.95 in 19 mi SE 17.3 mph - -   Partly Cloudy
11:00 AM 82.4 °F 88.2 °F 73.4 °F 74% 29.95 in 6.2 mi SE 17.3 mph - N/A   Mostly Cloudy
12:00 PM 82.4 °F 88.2 °F 73.4 °F 74% 29.95 in 6.2 mi SE 16.1 mph - N/A   Mostly Cloudy
1:00 PM 82.4 °F 88.2 °F 73.4 °F 74% 29.95 in 6.2 mi SE 16.1 mph - N/A   Mostly Cloudy
2:00 PM 84 °F - 73 °F 62% 29.92 in 19 mi SE 16.1 mph - -  
2:00 PM 84.2 °F 90.9 °F 73.4 °F 70% 29.92 in 6.2 mi SE 16.1 mph - N/A   Mostly Cloudy
3:00 PM 82.4 °F 88.2 °F 73.4 °F 74% 29.89 in 6.2 mi ESE 17.3 mph - N/A   Mostly Cloudy
4:00 PM 80.6 °F 84.6 °F 71.6 °F 74% 29.89 in 6.2 mi SE 15.0 mph - N/A   Mostly Cloudy
5:00 PM 79 °F - 72 °F 73% 29.90 in 19 mi SE 13.8 mph - -   Partly Cloudy
5:00 PM 78.8 °F - 71.6 °F 78% 29.89 in 6.2 mi SE 13.8 mph - N/A   Mostly Cloudy
6:00 PM 78.8 °F - 71.6 °F 78% 29.89 in 6.2 mi ESE 13.8 mph - N/A   Mostly Cloudy
7:00 PM 78.8 °F - 71.6 °F 78% 29.92 in 6.2 mi ESE 13.8 mph - N/A   Mostly Cloudy
8:00 PM 78 °F - 72 °F 76% 29.94 in 19 mi ESE 13.8 mph - -   Scattered Clouds
8:00 PM 78.8 °F - 71.6 °F 78% 29.92 in 6.2 mi ESE 13.8 mph - N/A   Mostly Cloudy
9:00 PM 77.0 °F - 71.6 °F 83% 29.95 in 6.2 mi ESE 10.4 mph - N/A   Mostly Cloudy
10:00 PM 77.0 °F - 71.6 °F 83% 29.98 in 6.2 mi ESE 11.5 mph - N/A   Mostly Cloudy
11:00 PM 77 °F - 72 °F 81% 29.97 in 19 mi ESE 11.5 mph - -   Partly Cloudy
11:00 PM 77.0 °F - 71.6 °F 83% 29.98 in 6.2 mi ESE 11.5 mph - N/A   Mostly Cloudy